This is the latest recevied weather packets stored in our database for station/object iw0uwf-4. If no packets are shown the sender has not sent any weather packets the latest 1 day(s).
| Time | Temp. | Humidity | Pressure | Rain* | Wind** | Luminosity | Snow |
|---|---|---|---|---|---|---|---|
| 1778025724 | 15.56° C | 76% | 1004.3 hPa | 0 mm | 2.68 m/s, 267° | 0 W/m² | - |
| 1778025664 | 15.56° C | 76% | 1004.3 hPa | 0 mm | 2.68 m/s, 268° | 0 W/m² | - |
| 1778025604 | 15.56° C | 76% | 1004.2 hPa | 0 mm | 2.68 m/s, 262° | 0 W/m² | - |
| 1778025544 | 15.56° C | 76% | 1004.2 hPa | 0 mm | 2.68 m/s, 256° | 0 W/m² | - |
| 1778025484 | 15.56° C | 76% | 1004.1 hPa | 0 mm | 2.68 m/s, 252° | 0 W/m² | - |
| 1778025424 | 15.56° C | 76% | 1004.3 hPa | 0 mm | 2.68 m/s, 248° | 0 W/m² | - |
| 1778025364 | 15.56° C | 76% | 1004.2 hPa | 0 mm | 2.68 m/s, 244° | 0 W/m² | - |
| 1778025304 | 15.56° C | 76% | 1004.4 hPa | 0 mm | 2.68 m/s, 238° | 0 W/m² | - |
| 1778025244 | 15.56° C | 75% | 1004.2 hPa | 0 mm | 2.68 m/s, 242° | 0 W/m² | - |
| 1778025128 | 15.56° C | 75% | 1004.3 hPa | 0 mm | 2.68 m/s, 247° | 0 W/m² | - |
| 1778025064 | 15.56° C | 75% | 1004.3 hPa | 0 mm | 2.68 m/s, 247° | 0 W/m² | - |
| 1778025003 | 15.56° C | 75% | 1004.2 hPa | 0 mm | 2.68 m/s, 251° | 0 W/m² | - |
| 1778024943 | 15.56° C | 75% | 1004.4 hPa | 0 mm | 2.68 m/s, 252° | 0 W/m² | - |
| 1778024883 | 15.56° C | 75% | 1004.4 hPa | 0 mm | 2.68 m/s, 248° | 0 W/m² | - |
| 1778024823 | 15.56° C | 75% | 1004.4 hPa | 0 mm | 2.68 m/s, 236° | 0 W/m² | - |
| 1778024763 | 15.56° C | 75% | 1004.4 hPa | 0 mm | 2.68 m/s, 235° | 0 W/m² | - |
| 1778024703 | 15.56° C | 75% | 1004.4 hPa | 0 mm | 2.68 m/s, 235° | 0 W/m² | - |
| 1778024643 | 15.56° C | 75% | 1004.3 hPa | 0 mm | 2.68 m/s, 237° | 0 W/m² | - |
| 1778024583 | 15.56° C | 75% | 1004.4 hPa | 0 mm | 2.68 m/s, 235° | 0 W/m² | - |
| 1778024524 | 15.56° C | 75% | 1004.3 hPa | 0 mm | 2.68 m/s, 235° | 0 W/m² | - |
| 1778024464 | 15.56° C | 75% | 1004.4 hPa | 0 mm | 2.68 m/s, 236° | 0 W/m² | - |
| 1778024404 | 15.56° C | 75% | 1004.4 hPa | 0 mm | 2.68 m/s, 241° | 0 W/m² | - |
| 1778024344 | 15.56° C | 75% | 1004.4 hPa | 0 mm | 2.68 m/s, 251° | 0 W/m² | - |
| 1778024284 | 15.56° C | 75% | 1004.3 hPa | 0 mm | 3.13 m/s, 258° | 0 W/m² | - |
| 1778024224 | 15.56° C | 75% | 1004.2 hPa | 0 mm | 3.13 m/s, 256° | 0 W/m² | - |
* Rain latest hour (hover to see other rain measurements)
** Current wind speed in m/s (hover to see current wind gust speed)